This demonstration page uses our WeatherBlox Daily Observations layout. Learn more.

Left ArrowRight Arrow

Hourly Observations for September 4, 2020

Temp ( °F °C ) Dew Point ( °F °C ) Humidity (%) Winds ( mph kmh ) Pressure ( in mb ) Visibility ( mi km ) Precip ( " mm )
12:53 am 00:53 Clear 82 27.8 56 13.3 41 41 ESE 13 20 29.90 1013 10 16 0.00 0.00
1:53 am 01:53 Clear 81 27.2 58 14.4 45 45 SE 14 22 29.92 1013 10 16 0.00 0.00
2:53 am 02:53 Clear 77 25 62 16.7 60 60 SSE 8 13 29.92 1013 10 16 0.00 0.00
3:53 am 03:53 Clear 74 23.3 61 16.1 64 64 SSE 5 7 29.93 1014 10 16 0.00 0.00
4:53 am 04:53 Clear 71 21.7 60 15.6 68 68 NNE 8 13 29.94 1014 10 16 0.00 0.00
5:53 am 05:53 Clear 68 20 60 15.6 76 76 NNE 7 11 29.95 1014 10 16 0.00 0.00
6:53 am 06:53 Clear 67 19.4 59 15 76 76 NNE 6 9 29.97 1015 10 16 0.00 0.00
7:53 am 07:53 Sunny 67 19.4 59 15 76 76 NNE 7 11 29.99 1016 10 16 0.00 0.00
8:53 am 08:53 Sunny 74 23.3 60 15.6 62 62 NNE 3 6 30.02 1017 10 16 0.00 0.00
9:53 am 09:53 Sunny 81 27.2 61 16.1 51 51 NE 7 11 30.03 1017 10 16 0.00 0.00
10:53 am 10:53 Sunny 84 28.9 60 15.6 44 44 SE 5 7 30.04 1017 10 16 0.00 0.00
11:53 am 11:53 Sunny 88 31.1 59 15 38 38 E 10 17 30.04 1017 10 16 0.00 0.00
12:53 pm 12:53 Sunny 91 32.8 55 12.8 30 30 ENE 9 15 30.02 1017 10 16 0.00 0.00
1:53 pm 13:53 Sunny 92 33.3 55 12.8 29 29 E 8 13 30.00 1016 10 16 0.00 0.00
2:53 pm 14:53 Sunny 94 34.4 54 12.2 26 26 ESE 9 15 29.98 1015 10 16 0.00 0.00
3:53 pm 15:53 Sunny 95 35 53 11.7 24 24 VRB 6 9 29.96 1014 10 16 0.00 0.00
4:53 pm 16:53 Mostly Sunny 96 35.6 53 11.7 23 23 ENE 16 26 29.94 1014 10 16 0.00 0.00
5:53 pm 17:53 Mostly Sunny 96 35.6 51 10.6 22 22 ENE 14 22 29.95 1014 10 16 0.00 0.00
6:53 pm 18:53 Sunny 94 34.4 52 11.1 24 24 E 15 24 29.95 1014 10 16 0.00 0.00
7:53 pm 19:53 Sunny 91 32.8 51 10.6 26 26 ENE 14 22 29.97 1015 10 16 0.00 0.00
8:53 pm 20:53 Clear 88 31.1 54 12.2 31 31 E 9 15 30.00 1016 10 16 0.00 0.00
9:53 pm 21:53 Clear 86 30 55 12.8 35 35 E 10 17 30.02 1017 10 16 0.00 0.00
10:53 pm 22:53 Clear 83 28.3 56 13.3 40 40 E 9 15 30.04 1017 10 16 0.00 0.00
11:53 pm 23:53 Clear 81 27.2 56 13.3 42 42 E 9 15 30.06 1018 10 16 0.00 0.00

Powered by AerisWeather